Location: Fairmont
(43.6520°N, 94.4610°W)
Time: 15:42:06
(UTC-05:00)

Cosmos-2242 - Visible Passes

Search period start: 25 May 2018 00:00
Search period end: 04 June 2018 00:00
Orbit: 590 x 619 km, 82.5° (Epoch: 24 May)

Date Brightness Start Highest point End Pass type
(mag) Time Alt. Az. Time Alt. Az. Time Alt. Az.
25 May 5.4 00:33:15 10° NE 00:35:27 14° ENE 00:36:09 13° ENE visible
25 May 3.4 02:09:11 10° NNW 02:13:00 53° WNW 02:13:00 53° WNW visible
26 May 4.8 00:45:11 10° NNE 00:48:31 22° ENE 00:48:51 21° E visible
26 May 4.1 02:22:17 10° NNW 02:25:42 32° WNW 02:25:42 32° WNW visible
27 May 4.1 00:57:34 10° N 01:01:30 34° ENE 01:01:34 34° ENE visible
27 May 4.8 02:35:39 10° NW 02:38:24 20° W 02:38:24 20° W visible
28 May 3.3 01:10:11 10° N 01:14:17 57° ENE 01:14:17 57° ENE visible
28 May 5.3 02:49:36 10° WNW 02:51:08 13° W 02:51:08 13° W visible
29 May 3.0 01:22:58 10° N 01:27:00 77° NNW 01:27:00 77° NNW visible
29 May 5.1 23:59:38 10° NNE 00:02:14 15° ENE 00:02:54 15° E visible
30 May 3.6 01:35:55 10° NNW 01:39:45 48° WNW 01:39:45 48° WNW visible
31 May 4.6 00:11:43 10° NNE 00:15:16 24° ENE 00:15:40 24° E visible
31 May 4.3 01:49:04 10° NNW 01:52:31 29° W 01:52:31 29° W visible
01 Jun 3.8 00:24:11 10° N 00:28:14 39° ENE 00:28:25 39° E visible
01 Jun 4.9 02:02:31 10° NW 02:05:17 18° W 02:05:17 18° W visible
02 Jun 3.1 00:36:51 10° N 00:41:09 66° E 00:41:12 66° E visible
02 Jun 5.4 02:16:50 10° WNW 02:18:03 11° W 02:18:03 11° W visible
02 Jun 5.4 23:14:46 10° NE 23:15:53 11° ENE 23:17:01 10° E visible
03 Jun 3.0 00:49:40 10° NNW 00:53:59 74° W 00:53:59 74° W visible
03 Jun 4.9 23:26:04 10° NNE 23:28:59 17° ENE 23:29:56 16° E visible
